Year,Month,Day,Hour,Minute,Value (Times are PST for temperature in C)
2020,07,01,00,00,13.60
2020,07,01,00,01,13.50
2020,07,01,00,02,13.50
2020,07,01,00,03,13.40
2020,07,01,00,04,13.40
2020,07,01,00,05,13.40
2020,07,01,00,06,13.30
2020,07,01,00,07,13.30
2020,07,01,00,08,13.30
2020,07,01,00,09,13.20
2020,07,01,00,10,13.20
2020,07,01,00,11,13.20
2020,07,01,00,12,13.10
2020,07,01,00,13,13.10
2020,07,01,00,14,13.00
2020,07,01,00,15,13.00
2020,07,01,00,16,12.90
2020,07,01,00,17,12.90
2020,07,01,00,18,12.80
2020,07,01,00,19,12.80
2020,07,01,00,20,12.80
2020,07,01,00,21,12.70
2020,07,01,00,22,12.70
2020,07,01,00,23,12.70
2020,07,01,00,24,12.60
2020,07,01,00,25,12.60
2020,07,01,00,26,12.60
2020,07,01,00,27,12.50
2020,07,01,00,28,12.50
2020,07,01,00,29,12.50
2020,07,01,00,30,12.50
2020,07,01,00,31,12.40
2020,07,01,00,32,12.40
2020,07,01,00,33,12.40
2020,07,01,00,34,12.40
2020,07,01,00,35,12.40
2020,07,01,00,36,12.30
2020,07,01,00,37,12.30
2020,07,01,00,38,12.30
2020,07,01,00,39,12.30
2020,07,01,00,40,12.30
2020,07,01,00,41,12.30
2020,07,01,00,42,12.20
2020,07,01,00,43,12.20
2020,07,01,00,44,12.20
2020,07,01,00,45,12.20
2020,07,01,00,46,12.10
2020,07,01,00,47,12.10
2020,07,01,00,48,12.10
2020,07,01,00,49,12.10
2020,07,01,00,50,12.10
2020,07,01,00,51,12.10
2020,07,01,00,52,12.10
2020,07,01,00,53,12.00
2020,07,01,00,54,12.00
2020,07,01,00,55,12.00
2020,07,01,00,56,11.90
2020,07,01,00,57,11.90
2020,07,01,00,58,11.90
2020,07,01,00,59,11.80
2020,07,01,01,00,11.80
2020,07,01,01,01,11.80
2020,07,01,01,02,11.80
2020,07,01,01,03,11.80
2020,07,01,01,04,11.80
2020,07,01,01,05,11.70
2020,07,01,01,06,11.70
2020,07,01,01,07,11.70
2020,07,01,01,08,11.70
2020,07,01,01,09,11.60
2020,07,01,01,10,11.60
2020,07,01,01,11,11.60
2020,07,01,01,12,11.60
2020,07,01,01,13,11.60
2020,07,01,01,14,11.50
2020,07,01,01,15,11.50
2020,07,01,01,16,11.50
2020,07,01,01,17,11.50
2020,07,01,01,18,11.50
2020,07,01,01,19,11.50
2020,07,01,01,20,11.40
2020,07,01,01,21,11.40
2020,07,01,01,22,11.40
2020,07,01,01,23,11.50
2020,07,01,01,24,11.50
2020,07,01,01,25,11.50
2020,07,01,01,26,11.50
2020,07,01,01,27,11.40
2020,07,01,01,28,11.40
2020,07,01,01,29,11.40
2020,07,01,01,30,11.40
2020,07,01,01,31,11.40
2020,07,01,01,32,11.30
2020,07,01,01,33,11.30
2020,07,01,01,34,11.30
2020,07,01,01,35,11.30
2020,07,01,01,36,11.30
2020,07,01,01,37,11.30
2020,07,01,01,38,11.30
2020,07,01,01,39,11.30
2020,07,01,01,40,11.30
2020,07,01,01,41,11.20
2020,07,01,01,42,11.20
2020,07,01,01,43,11.20
2020,07,01,01,44,11.20
2020,07,01,01,45,11.20
2020,07,01,01,46,11.20
2020,07,01,01,47,11.20
2020,07,01,01,48,11.20
2020,07,01,01,49,11.20
2020,07,01,01,50,11.20
2020,07,01,01,51,11.20
2020,07,01,01,52,11.20
2020,07,01,01,53,11.20
2020,07,01,01,54,11.20
2020,07,01,01,55,11.20
2020,07,01,01,56,11.20
2020,07,01,01,57,11.20
2020,07,01,01,58,11.20
2020,07,01,01,59,11.20
2020,07,01,02,00,11.20
2020,07,01,02,01,11.30
2020,07,01,02,02,11.30
2020,07,01,02,03,11.30
2020,07,01,02,04,11.30
2020,07,01,02,05,11.30
2020,07,01,02,06,11.20
2020,07,01,02,07,11.20
2020,07,01,02,08,11.20
2020,07,01,02,09,11.20
2020,07,01,02,10,11.20
2020,07,01,02,11,11.20
2020,07,01,02,12,11.20
2020,07,01,02,13,11.30
2020,07,01,02,14,11.30
2020,07,01,02,15,11.30
2020,07,01,02,16,11.20
2020,07,01,02,17,11.30
2020,07,01,02,18,11.30
2020,07,01,02,19,11.30
2020,07,01,02,20,11.30
2020,07,01,02,21,11.20
2020,07,01,02,22,11.20
2020,07,01,02,23,11.20
2020,07,01,02,24,11.20
2020,07,01,02,25,11.20
2020,07,01,02,26,11.20
2020,07,01,02,27,11.20
2020,07,01,02,28,11.20
2020,07,01,02,29,11.20
2020,07,01,02,30,11.20
2020,07,01,02,31,11.20
2020,07,01,02,32,11.20
2020,07,01,02,33,11.20
2020,07,01,02,34,11.20
2020,07,01,02,35,11.20
2020,07,01,02,36,11.20
2020,07,01,02,37,11.20
2020,07,01,02,38,11.20
2020,07,01,02,39,11.20
2020,07,01,02,40,11.20
2020,07,01,02,41,11.20
2020,07,01,02,42,11.20
2020,07,01,02,43,11.20
2020,07,01,02,44,11.20
2020,07,01,02,45,11.20
2020,07,01,02,46,11.20
2020,07,01,02,47,11.20
2020,07,01,02,48,11.20
2020,07,01,02,49,11.20
2020,07,01,02,50,11.20
2020,07,01,02,51,11.20
2020,07,01,02,52,11.20
2020,07,01,02,53,11.20
2020,07,01,02,54,11.20
2020,07,01,02,55,11.20
2020,07,01,02,56,11.20
2020,07,01,02,57,11.20
2020,07,01,02,58,11.10
2020,07,01,02,59,11.10
2020,07,01,03,00,11.10
2020,07,01,03,01,11.10
2020,07,01,03,02,11.00
2020,07,01,03,03,11.00
2020,07,01,03,04,11.00
2020,07,01,03,05,11.00
2020,07,01,03,06,11.00
2020,07,01,03,07,11.00
2020,07,01,03,08,10.90
2020,07,01,03,09,10.90
2020,07,01,03,10,10.90
2020,07,01,03,11,10.90
2020,07,01,03,12,10.90
2020,07,01,03,13,10.90
2020,07,01,03,14,10.90
2020,07,01,03,15,10.80
2020,07,01,03,16,10.80
2020,07,01,03,17,10.80
2020,07,01,03,18,10.80
2020,07,01,03,19,10.80
2020,07,01,03,20,10.80
2020,07,01,03,21,10.80
2020,07,01,03,22,10.80
2020,07,01,03,23,10.70
2020,07,01,03,24,10.70
2020,07,01,03,25,10.70
2020,07,01,03,26,10.70
2020,07,01,03,27,10.70
2020,07,01,03,28,10.70
2020,07,01,03,29,10.70
2020,07,01,03,30,10.70
2020,07,01,03,31,10.70
2020,07,01,03,32,10.70
2020,07,01,03,33,10.70
2020,07,01,03,34,10.70
2020,07,01,03,35,10.70
2020,07,01,03,36,10.70
2020,07,01,03,37,10.70
2020,07,01,03,38,10.70
2020,07,01,03,39,10.70
2020,07,01,03,40,10.70
2020,07,01,03,41,10.80
2020,07,01,03,42,10.80
2020,07,01,03,43,10.80
2020,07,01,03,44,10.80
2020,07,01,03,45,10.80
2020,07,01,03,46,10.80
2020,07,01,03,47,10.80
2020,07,01,03,48,10.80
2020,07,01,03,49,10.80
2020,07,01,03,50,10.80
2020,07,01,03,51,10.90
2020,07,01,03,52,10.90
2020,07,01,03,53,10.90
2020,07,01,03,54,10.90
2020,07,01,03,55,10.90
2020,07,01,03,56,10.90
2020,07,01,03,57,10.90
2020,07,01,03,58,10.90
2020,07,01,03,59,10.90
2020,07,01,04,00,10.90
2020,07,01,04,01,11.00
2020,07,01,04,02,11.00
2020,07,01,04,03,11.00
2020,07,01,04,04,11.00
2020,07,01,04,05,11.00
2020,07,01,04,06,11.00
2020,07,01,04,07,11.00
2020,07,01,04,08,11.10
2020,07,01,04,09,11.10
2020,07,01,04,10,11.10
2020,07,01,04,11,11.10
2020,07,01,04,12,11.10
2020,07,01,04,13,11.20
2020,07,01,04,14,11.20
2020,07,01,04,15,11.20
2020,07,01,04,16,11.20
2020,07,01,04,17,11.20
2020,07,01,04,18,11.20
2020,07,01,04,19,11.20
2020,07,01,04,20,11.20
2020,07,01,04,21,11.20
2020,07,01,04,22,11.20
2020,07,01,04,23,11.30
2020,07,01,04,24,11.30
2020,07,01,04,25,11.30
2020,07,01,04,26,11.30
2020,07,01,04,27,11.30
2020,07,01,04,28,11.30
2020,07,01,04,29,11.20
2020,07,01,04,30,11.20
2020,07,01,04,31,11.20
2020,07,01,04,32,11.20
2020,07,01,04,33,11.20
2020,07,01,04,34,11.20
2020,07,01,04,35,11.20
2020,07,01,04,36,11.20
2020,07,01,04,37,11.20
2020,07,01,04,38,11.20
2020,07,01,04,39,11.20
2020,07,01,04,40,11.20
2020,07,01,04,41,11.20
2020,07,01,04,42,11.20
2020,07,01,04,43,11.20
2020,07,01,04,44,11.20
2020,07,01,04,45,11.20
2020,07,01,04,46,11.20
2020,07,01,04,47,11.20
2020,07,01,04,48,11.20
2020,07,01,04,49,11.20
2020,07,01,04,50,11.20
2020,07,01,04,51,11.20
2020,07,01,04,52,11.20
2020,07,01,04,53,11.20
2020,07,01,04,54,11.10
2020,07,01,04,55,11.10
2020,07,01,04,56,11.10
2020,07,01,04,57,11.10
2020,07,01,04,58,11.10
2020,07,01,04,59,11.10
2020,07,01,05,00,11.10
2020,07,01,05,01,11.00
2020,07,01,05,02,11.00
2020,07,01,05,03,11.00
2020,07,01,05,04,11.00
2020,07,01,05,05,10.90
2020,07,01,05,06,10.90
2020,07,01,05,07,10.90
2020,07,01,05,08,10.90
2020,07,01,05,09,10.80
2020,07,01,05,10,10.80
2020,07,01,05,11,10.80
2020,07,01,05,12,10.80
2020,07,01,05,13,10.70
2020,07,01,05,14,10.70
2020,07,01,05,15,10.70
2020,07,01,05,16,10.70
2020,07,01,05,17,10.60
2020,07,01,05,18,10.60
2020,07,01,05,19,10.60
2020,07,01,05,20,10.60
2020,07,01,05,21,10.60
2020,07,01,05,22,10.60
2020,07,01,05,23,10.60
2020,07,01,05,24,10.50
2020,07,01,05,25,10.50
2020,07,01,05,26,10.50
2020,07,01,05,27,10.40
2020,07,01,05,28,10.40
2020,07,01,05,29,10.40
2020,07,01,05,30,10.40
2020,07,01,05,31,10.40
2020,07,01,05,32,10.40
2020,07,01,05,33,10.30
2020,07,01,05,34,10.30
2020,07,01,05,35,10.30
2020,07,01,05,36,10.30
2020,07,01,05,37,10.30
2020,07,01,05,38,10.30
2020,07,01,05,39,10.30
2020,07,01,05,40,10.30
2020,07,01,05,41,10.30
2020,07,01,05,42,10.30
2020,07,01,05,43,10.30
2020,07,01,05,44,10.20
2020,07,01,05,45,10.20
2020,07,01,05,46,10.20
2020,07,01,05,47,10.20
2020,07,01,05,48,10.20
2020,07,01,05,49,10.20
2020,07,01,05,50,10.20
2020,07,01,05,51,10.20
2020,07,01,05,52,10.20
2020,07,01,05,53,10.20
2020,07,01,05,54,10.20
2020,07,01,05,55,10.20
2020,07,01,05,56,10.20
2020,07,01,05,57,10.20
2020,07,01,05,58,10.20
2020,07,01,05,59,10.20
2020,07,01,06,00,10.20
2020,07,01,06,01,10.20
2020,07,01,06,02,10.20
2020,07,01,06,03,10.20
2020,07,01,06,04,10.20
2020,07,01,06,05,10.20
2020,07,01,06,06,10.20
2020,07,01,06,07,10.30
2020,07,01,06,08,10.30
2020,07,01,06,09,10.30
2020,07,01,06,10,10.30
2020,07,01,06,11,10.30
2020,07,01,06,12,10.30
2020,07,01,06,13,10.30
2020,07,01,06,14,10.30
2020,07,01,06,15,10.30
2020,07,01,06,16,10.30
2020,07,01,06,17,10.30
2020,07,01,06,18,10.30
2020,07,01,06,19,10.30
2020,07,01,06,20,10.30
2020,07,01,06,21,10.30
2020,07,01,06,22,10.30
2020,07,01,06,23,10.30
2020,07,01,06,24,10.30
2020,07,01,06,25,10.30
2020,07,01,06,26,10.30
2020,07,01,06,27,10.30
2020,07,01,06,28,10.30
2020,07,01,06,29,10.40
2020,07,01,06,30,10.40
2020,07,01,06,31,10.50
2020,07,01,06,32,10.60
2020,07,01,06,33,10.60
2020,07,01,06,34,10.60
2020,07,01,06,35,10.70
2020,07,01,06,36,10.70
2020,07,01,06,37,10.70
2020,07,01,06,38,10.80
2020,07,01,06,39,10.80
2020,07,01,06,40,10.80
2020,07,01,06,41,10.80
2020,07,01,06,42,10.80
2020,07,01,06,43,10.90
2020,07,01,06,44,10.90
2020,07,01,06,45,10.90
2020,07,01,06,46,10.90
2020,07,01,06,47,10.90
2020,07,01,06,48,10.90
2020,07,01,06,49,10.90
2020,07,01,06,50,10.80
2020,07,01,06,51,10.80
2020,07,01,06,52,10.90
2020,07,01,06,53,10.90
2020,07,01,06,54,10.90
2020,07,01,06,55,11.00
2020,07,01,06,56,11.00
2020,07,01,06,57,11.10
2020,07,01,06,58,11.10
2020,07,01,06,59,11.20
2020,07,01,07,00,11.30
2020,07,01,07,01,11.30
2020,07,01,07,02,11.40
2020,07,01,07,03,11.40
2020,07,01,07,04,11.50
2020,07,01,07,05,11.50
2020,07,01,07,06,11.60
2020,07,01,07,07,11.60
2020,07,01,07,08,11.70
2020,07,01,07,09,11.80
2020,07,01,07,10,11.90
2020,07,01,07,11,12.00
2020,07,01,07,12,12.00
2020,07,01,07,13,12.10
2020,07,01,07,14,12.20
2020,07,01,07,15,12.20
2020,07,01,07,16,12.20
2020,07,01,07,17,12.30
2020,07,01,07,18,12.30
2020,07,01,07,19,12.30
2020,07,01,07,20,12.30
2020,07,01,07,21,12.40
2020,07,01,07,22,12.40
2020,07,01,07,23,12.40
2020,07,01,07,24,12.40
2020,07,01,07,25,12.40
2020,07,01,07,26,12.40
2020,07,01,07,27,12.50
2020,07,01,07,28,12.50
2020,07,01,07,29,12.50
2020,07,01,07,30,12.50
2020,07,01,07,31,12.60
2020,07,01,07,32,12.60
2020,07,01,07,33,12.60
2020,07,01,07,34,12.60
2020,07,01,07,35,12.60
2020,07,01,07,36,12.70
2020,07,01,07,37,12.70
2020,07,01,07,38,12.70
2020,07,01,07,39,12.70
2020,07,01,07,40,12.70
2020,07,01,07,41,12.70
2020,07,01,07,42,12.70
2020,07,01,07,43,12.70
2020,07,01,07,44,12.70
2020,07,01,07,45,12.70
2020,07,01,07,46,12.80
2020,07,01,07,47,12.80
2020,07,01,07,48,12.80
2020,07,01,07,49,12.80
2020,07,01,07,50,12.80
2020,07,01,07,51,12.80
2020,07,01,07,52,12.80
2020,07,01,07,53,12.90
2020,07,01,07,54,12.90
2020,07,01,07,55,12.90
2020,07,01,07,56,13.00
2020,07,01,07,57,13.00
2020,07,01,07,58,13.10
2020,07,01,07,59,13.10
2020,07,01,08,00,13.20
2020,07,01,08,01,13.20
2020,07,01,08,02,13.30
2020,07,01,08,03,13.30
2020,07,01,08,04,13.40
2020,07,01,08,05,13.40
2020,07,01,08,06,13.50
2020,07,01,08,07,13.50
2020,07,01,08,08,13.50
2020,07,01,08,09,13.60
2020,07,01,08,10,13.60
2020,07,01,08,11,13.60
2020,07,01,08,12,13.60
2020,07,01,08,13,13.60
2020,07,01,08,14,13.70
2020,07,01,08,15,13.70
2020,07,01,08,16,13.70
2020,07,01,08,17,13.70
2020,07,01,08,18,13.70
2020,07,01,08,19,13.70
2020,07,01,08,20,13.80
2020,07,01,08,21,13.90
2020,07,01,08,22,13.90
2020,07,01,08,23,14.00
2020,07,01,08,24,14.00
2020,07,01,08,25,14.00
2020,07,01,08,26,14.00
2020,07,01,08,27,14.00
2020,07,01,08,28,14.00
2020,07,01,08,29,14.00
2020,07,01,08,30,14.10
2020,07,01,08,31,14.20
2020,07,01,08,32,14.30
2020,07,01,08,33,14.30
2020,07,01,08,34,14.50
2020,07,01,08,35,14.60
2020,07,01,08,36,14.70
2020,07,01,08,37,14.80
2020,07,01,08,38,14.80
2020,07,01,08,39,14.90
2020,07,01,08,40,15.00
2020,07,01,08,41,15.00
2020,07,01,08,42,15.10
2020,07,01,08,43,15.10
2020,07,01,08,44,15.10
2020,07,01,08,45,15.00
2020,07,01,08,46,15.00
2020,07,01,08,47,15.00
2020,07,01,08,48,15.00
2020,07,01,08,49,14.90
2020,07,01,08,50,14.90
2020,07,01,08,51,14.80
2020,07,01,08,52,14.80
2020,07,01,08,53,14.80
2020,07,01,08,54,14.70
2020,07,01,08,55,14.80
2020,07,01,08,56,14.80
2020,07,01,08,57,14.80
2020,07,01,08,58,14.80
2020,07,01,08,59,14.90
2020,07,01,09,00,15.00
2020,07,01,09,01,15.10
2020,07,01,09,02,15.20
2020,07,01,09,03,15.20
2020,07,01,09,04,15.30
2020,07,01,09,05,15.40
2020,07,01,09,06,15.30
2020,07,01,09,07,15.30
2020,07,01,09,08,15.20
2020,07,01,09,09,15.20
2020,07,01,09,10,15.20
2020,07,01,09,11,15.30
2020,07,01,09,12,15.30
2020,07,01,09,13,15.40
2020,07,01,09,14,15.40
2020,07,01,09,15,15.50
2020,07,01,09,16,15.50
2020,07,01,09,17,15.60
2020,07,01,09,18,15.60
2020,07,01,09,19,15.60
2020,07,01,09,20,15.70
2020,07,01,09,21,15.80
2020,07,01,09,22,15.80
2020,07,01,09,23,15.90
2020,07,01,09,24,15.90
2020,07,01,09,25,16.00
2020,07,01,09,26,16.00
2020,07,01,09,27,16.00
2020,07,01,09,28,16.00
2020,07,01,09,29,16.00
2020,07,01,09,30,16.00
2020,07,01,09,31,16.10
2020,07,01,09,32,16.20
2020,07,01,09,33,16.20
2020,07,01,09,34,16.20
2020,07,01,09,35,16.30
2020,07,01,09,36,16.30
2020,07,01,09,37,16.30
2020,07,01,09,38,16.30
2020,07,01,09,39,16.20
2020,07,01,09,40,16.20
2020,07,01,09,41,16.20
2020,07,01,09,42,16.20
2020,07,01,09,43,16.20
2020,07,01,09,44,16.20
2020,07,01,09,45,16.20
2020,07,01,09,46,16.30
2020,07,01,09,47,16.30
2020,07,01,09,48,16.30
2020,07,01,09,49,16.40
2020,07,01,09,50,16.50
2020,07,01,09,51,16.50
2020,07,01,09,52,16.60
2020,07,01,09,53,16.60
2020,07,01,09,54,16.60
2020,07,01,09,55,16.60
2020,07,01,09,56,16.60
2020,07,01,09,57,16.50
2020,07,01,09,58,16.50
2020,07,01,09,59,16.50
2020,07,01,10,00,16.50
2020,07,01,10,01,16.50
2020,07,01,10,02,16.50
2020,07,01,10,03,16.50
2020,07,01,10,04,16.50
2020,07,01,10,05,16.50
2020,07,01,10,06,16.60
2020,07,01,10,07,16.60
2020,07,01,10,08,16.60
2020,07,01,10,09,16.60
2020,07,01,10,10,16.60
2020,07,01,10,11,16.60
2020,07,01,10,12,16.50
2020,07,01,10,13,16.40
2020,07,01,10,14,16.40
2020,07,01,10,15,16.40
2020,07,01,10,16,16.40
2020,07,01,10,17,16.30
2020,07,01,10,18,16.30
2020,07,01,10,19,16.30
2020,07,01,10,20,16.30
2020,07,01,10,21,16.40
2020,07,01,10,22,16.30
2020,07,01,10,23,16.30
2020,07,01,10,24,16.30
2020,07,01,10,25,16.40
2020,07,01,10,26,16.40
2020,07,01,10,27,16.40
2020,07,01,10,28,16.50
2020,07,01,10,29,16.50
2020,07,01,10,30,16.50
2020,07,01,10,31,16.50
2020,07,01,10,32,16.50
2020,07,01,10,33,16.50
2020,07,01,10,34,16.50
2020,07,01,10,35,16.40
2020,07,01,10,36,16.50
2020,07,01,10,37,16.50
2020,07,01,10,38,16.50
2020,07,01,10,39,16.50
2020,07,01,10,40,16.40
2020,07,01,10,41,16.40
2020,07,01,10,42,16.40
2020,07,01,10,43,16.40
2020,07,01,10,44,16.40
2020,07,01,10,45,16.50
2020,07,01,10,46,16.50
2020,07,01,10,47,16.40
2020,07,01,10,48,16.40
2020,07,01,10,49,16.40
2020,07,01,10,50,16.30
2020,07,01,10,51,16.30
2020,07,01,10,52,16.30
2020,07,01,10,53,16.30
2020,07,01,10,54,16.30
2020,07,01,10,55,16.30
2020,07,01,10,56,16.30
2020,07,01,10,57,16.30
2020,07,01,10,58,16.30
2020,07,01,10,59,16.30
2020,07,01,11,00,16.30
2020,07,01,11,01,16.40
2020,07,01,11,02,16.40
2020,07,01,11,03,16.40
2020,07,01,11,04,16.30
2020,07,01,11,05,16.30
2020,07,01,11,06,16.30
2020,07,01,11,07,16.30
2020,07,01,11,08,16.30
2020,07,01,11,09,16.40
2020,07,01,11,10,16.30
2020,07,01,11,11,16.40
2020,07,01,11,12,16.40
2020,07,01,11,13,16.30
2020,07,01,11,14,16.30
2020,07,01,11,15,16.20
2020,07,01,11,16,16.10
2020,07,01,11,17,16.00
2020,07,01,11,18,16.00
2020,07,01,11,19,15.90
2020,07,01,11,20,15.80
2020,07,01,11,21,15.80
2020,07,01,11,22,15.80
2020,07,01,11,23,15.70
2020,07,01,11,24,15.70
2020,07,01,11,25,15.70
2020,07,01,11,26,15.70
2020,07,01,11,27,15.70
2020,07,01,11,28,15.70
2020,07,01,11,29,15.70
2020,07,01,11,30,15.70
2020,07,01,11,31,15.80
2020,07,01,11,32,15.80
2020,07,01,11,33,15.80
2020,07,01,11,34,15.80
2020,07,01,11,35,15.80
2020,07,01,11,36,15.80
2020,07,01,11,37,15.80
2020,07,01,11,38,15.80
2020,07,01,11,39,15.90
2020,07,01,11,40,15.90
2020,07,01,11,41,16.00
2020,07,01,11,42,16.00
2020,07,01,11,43,16.00
2020,07,01,11,44,15.90
2020,07,01,11,45,15.90
2020,07,01,11,46,15.90
2020,07,01,11,47,16.00
2020,07,01,11,48,16.00
2020,07,01,11,49,16.00
2020,07,01,11,50,16.10
2020,07,01,11,51,16.10
2020,07,01,11,52,16.10
2020,07,01,11,53,16.10
2020,07,01,11,54,16.10
2020,07,01,11,55,16.10
2020,07,01,11,56,16.10
2020,07,01,11,57,16.20
2020,07,01,11,58,16.30
2020,07,01,11,59,16.30
2020,07,01,12,00,16.30
2020,07,01,12,01,16.40
2020,07,01,12,02,16.40
2020,07,01,12,03,16.50
2020,07,01,12,04,16.60
2020,07,01,12,05,16.70
2020,07,01,12,06,16.70
2020,07,01,12,07,16.80
2020,07,01,12,08,16.80
2020,07,01,12,09,16.80
2020,07,01,12,10,16.80
2020,07,01,12,11,16.80
2020,07,01,12,12,16.80
2020,07,01,12,13,16.80
2020,07,01,12,14,16.80
2020,07,01,12,15,16.80
2020,07,01,12,16,16.80
2020,07,01,12,17,16.80
2020,07,01,12,18,16.80
2020,07,01,12,19,16.80
2020,07,01,12,20,16.80
2020,07,01,12,21,16.80
2020,07,01,12,22,16.70
2020,07,01,12,23,16.70
2020,07,01,12,24,16.70
2020,07,01,12,25,16.70
2020,07,01,12,26,16.70
2020,07,01,12,27,16.70
2020,07,01,12,28,16.70
2020,07,01,12,29,16.80
2020,07,01,12,30,16.80
2020,07,01,12,31,16.90
2020,07,01,12,32,16.90
2020,07,01,12,33,16.90
2020,07,01,12,34,16.90
2020,07,01,12,35,17.00
2020,07,01,12,36,17.00
2020,07,01,12,37,17.10
2020,07,01,12,38,17.20
2020,07,01,12,39,17.30
2020,07,01,12,40,17.20
2020,07,01,12,41,17.20
2020,07,01,12,42,17.20
2020,07,01,12,43,17.20
2020,07,01,12,44,17.20
2020,07,01,12,45,17.20
2020,07,01,12,46,17.40
2020,07,01,12,47,17.50
2020,07,01,12,48,17.50
2020,07,01,12,49,17.50
2020,07,01,12,50,17.50
2020,07,01,12,51,17.60
2020,07,01,12,52,17.70
2020,07,01,12,53,17.80
2020,07,01,12,54,17.90
2020,07,01,12,55,17.90
2020,07,01,12,56,18.00
2020,07,01,12,57,18.00
2020,07,01,12,58,17.90
2020,07,01,12,59,17.80
2020,07,01,13,00,17.70
2020,07,01,13,01,17.70
2020,07,01,13,02,17.70
2020,07,01,13,03,17.80
2020,07,01,13,04,17.80
2020,07,01,13,05,17.80
2020,07,01,13,06,17.80
2020,07,01,13,07,17.80
2020,07,01,13,08,17.80
2020,07,01,13,09,17.80
2020,07,01,13,10,17.80
2020,07,01,13,11,17.80
2020,07,01,13,12,17.70
2020,07,01,13,13,17.70
2020,07,01,13,14,17.60
2020,07,01,13,15,17.50
2020,07,01,13,16,17.50
2020,07,01,13,17,17.50
2020,07,01,13,18,17.60
2020,07,01,13,19,17.70
2020,07,01,13,20,17.70
2020,07,01,13,21,17.80
2020,07,01,13,22,17.90
2020,07,01,13,23,17.90
2020,07,01,13,24,17.90
2020,07,01,13,25,17.90
2020,07,01,13,26,18.00
2020,07,01,13,27,18.00
2020,07,01,13,28,18.00
2020,07,01,13,29,18.00
2020,07,01,13,30,18.00
2020,07,01,13,31,18.00
2020,07,01,13,32,18.00
2020,07,01,13,33,18.00
2020,07,01,13,34,18.00
2020,07,01,13,35,17.90
2020,07,01,13,36,17.90
2020,07,01,13,37,17.90
2020,07,01,13,38,17.80
2020,07,01,13,39,17.80
2020,07,01,13,40,17.90
2020,07,01,13,41,17.90
2020,07,01,13,42,17.90
2020,07,01,13,43,17.90
2020,07,01,13,44,17.80
2020,07,01,13,45,17.80
2020,07,01,13,46,17.80
2020,07,01,13,47,17.80
2020,07,01,13,48,17.80
2020,07,01,13,49,17.70
2020,07,01,13,50,17.70
2020,07,01,13,51,17.60
2020,07,01,13,52,17.60
2020,07,01,13,53,17.60
2020,07,01,13,54,17.60
2020,07,01,13,55,17.60
2020,07,01,13,56,17.70
2020,07,01,13,57,17.70
2020,07,01,13,58,17.70
2020,07,01,13,59,17.70
2020,07,01,14,00,17.70
2020,07,01,14,01,17.70
2020,07,01,14,02,17.70
2020,07,01,14,03,17.60
2020,07,01,14,04,17.60
2020,07,01,14,05,17.60
2020,07,01,14,06,17.60
2020,07,01,14,07,17.70
2020,07,01,14,08,17.80
2020,07,01,14,09,17.90
2020,07,01,14,10,18.00
2020,07,01,14,11,17.90
2020,07,01,14,12,17.90
2020,07,01,14,13,17.80
2020,07,01,14,14,17.70
2020,07,01,14,15,17.70
2020,07,01,14,16,17.60
2020,07,01,14,17,17.60
2020,07,01,14,18,17.60
2020,07,01,14,19,17.60
2020,07,01,14,20,17.60
2020,07,01,14,21,17.50
2020,07,01,14,22,17.40
2020,07,01,14,23,17.40
2020,07,01,14,24,17.40
2020,07,01,14,25,17.40
2020,07,01,14,26,17.30
2020,07,01,14,27,17.40
2020,07,01,14,28,17.40
2020,07,01,14,29,17.50
2020,07,01,14,30,17.60
2020,07,01,14,31,17.60
2020,07,01,14,32,17.70
2020,07,01,14,33,17.80
2020,07,01,14,34,17.80
2020,07,01,14,35,17.90
2020,07,01,14,36,17.90
2020,07,01,14,37,17.90
2020,07,01,14,38,17.90
2020,07,01,14,39,17.90
2020,07,01,14,40,17.90
2020,07,01,14,41,17.90
2020,07,01,14,42,17.80
2020,07,01,14,43,17.80
2020,07,01,14,44,17.80
2020,07,01,14,45,17.80
2020,07,01,14,46,17.70
2020,07,01,14,47,17.70
2020,07,01,14,48,17.70
2020,07,01,14,49,17.70
2020,07,01,14,50,17.70
2020,07,01,14,51,17.70
2020,07,01,14,52,17.80
2020,07,01,14,53,17.80
2020,07,01,14,54,17.70
2020,07,01,14,55,17.70
2020,07,01,14,56,17.60
2020,07,01,14,57,17.60
2020,07,01,14,58,17.50
2020,07,01,14,59,17.50
2020,07,01,15,00,17.50
2020,07,01,15,01,17.50
2020,07,01,15,02,17.50
2020,07,01,15,03,17.60
2020,07,01,15,04,17.60
2020,07,01,15,05,17.60
2020,07,01,15,06,17.60
2020,07,01,15,07,17.50
2020,07,01,15,08,17.50
2020,07,01,15,09,17.40
2020,07,01,15,10,17.30
2020,07,01,15,11,17.30
2020,07,01,15,12,17.30
2020,07,01,15,13,17.30
2020,07,01,15,14,17.30
2020,07,01,15,15,17.30
2020,07,01,15,16,17.30
2020,07,01,15,17,17.30
2020,07,01,15,18,17.30
2020,07,01,15,19,17.30
2020,07,01,15,20,17.30
2020,07,01,15,21,17.30
2020,07,01,15,22,17.30
2020,07,01,15,23,17.30
2020,07,01,15,24,17.30
2020,07,01,15,25,17.30
2020,07,01,15,26,17.20
2020,07,01,15,27,17.20
2020,07,01,15,28,17.20
2020,07,01,15,29,17.20
2020,07,01,15,30,17.20
2020,07,01,15,31,17.20
2020,07,01,15,32,17.30
2020,07,01,15,33,17.30
2020,07,01,15,34,17.30
2020,07,01,15,35,17.30
2020,07,01,15,36,17.40
2020,07,01,15,37,17.40
2020,07,01,15,38,17.50
2020,07,01,15,39,17.50
2020,07,01,15,40,17.50
2020,07,01,15,41,17.60
2020,07,01,15,42,17.60
2020,07,01,15,43,17.60
2020,07,01,15,44,17.50
2020,07,01,15,45,17.50
2020,07,01,15,46,17.40
2020,07,01,15,47,17.30
2020,07,01,15,48,17.30
2020,07,01,15,49,17.30
2020,07,01,15,50,17.30
2020,07,01,15,51,17.30
2020,07,01,15,52,17.30
2020,07,01,15,53,17.30
2020,07,01,15,54,17.30
2020,07,01,15,55,17.30
2020,07,01,15,56,17.30
2020,07,01,15,57,17.30
2020,07,01,15,58,17.30
2020,07,01,15,59,17.30
2020,07,01,16,00,17.30
2020,07,01,16,01,17.30
2020,07,01,16,02,17.20
2020,07,01,16,03,17.20
2020,07,01,16,04,17.20
2020,07,01,16,05,17.20
2020,07,01,16,06,17.20
2020,07,01,16,07,17.20
2020,07,01,16,08,17.20
2020,07,01,16,09,17.20
2020,07,01,16,10,17.20
2020,07,01,16,11,17.20
2020,07,01,16,12,17.20
2020,07,01,16,13,17.20
2020,07,01,16,14,17.20
2020,07,01,16,15,17.20
2020,07,01,16,16,17.20
2020,07,01,16,17,17.30
2020,07,01,16,18,17.30
2020,07,01,16,19,17.30
2020,07,01,16,20,17.20
2020,07,01,16,21,17.20
2020,07,01,16,22,17.20
2020,07,01,16,23,17.20
2020,07,01,16,24,17.20
2020,07,01,16,25,17.20
2020,07,01,16,26,17.10
2020,07,01,16,27,17.10
2020,07,01,16,28,17.10
2020,07,01,16,29,17.10
2020,07,01,16,30,17.10
2020,07,01,16,31,17.10
2020,07,01,16,32,17.10
2020,07,01,16,33,17.10
2020,07,01,16,34,17.10
2020,07,01,16,35,17.10
2020,07,01,16,36,17.10
2020,07,01,16,37,17.10
2020,07,01,16,38,17.10
2020,07,01,16,39,17.10
2020,07,01,16,40,17.00
2020,07,01,16,41,17.00
2020,07,01,16,42,17.00
2020,07,01,16,43,16.90
2020,07,01,16,44,16.90
2020,07,01,16,45,16.90
2020,07,01,16,46,16.90
2020,07,01,16,47,16.90
2020,07,01,16,48,16.90
2020,07,01,16,49,16.90
2020,07,01,16,50,16.90
2020,07,01,16,51,16.90
2020,07,01,16,52,16.90
2020,07,01,16,53,16.90
2020,07,01,16,54,16.90
2020,07,01,16,55,16.90
2020,07,01,16,56,16.90
2020,07,01,16,57,16.90
2020,07,01,16,58,17.00
2020,07,01,16,59,17.00
2020,07,01,17,00,17.10
2020,07,01,17,01,17.10
2020,07,01,17,02,17.10
2020,07,01,17,03,17.10
2020,07,01,17,04,17.20
2020,07,01,17,05,17.20
2020,07,01,17,06,17.20
2020,07,01,17,07,17.20
2020,07,01,17,08,17.20
2020,07,01,17,09,17.20
2020,07,01,17,10,17.30
2020,07,01,17,11,17.30
2020,07,01,17,12,17.40
2020,07,01,17,13,17.40
2020,07,01,17,14,17.50
2020,07,01,17,15,17.50
2020,07,01,17,16,17.50
2020,07,01,17,17,17.60
2020,07,01,17,18,17.60
2020,07,01,17,19,17.70